• en Belgique
  • Liste des pays
  • À 7 jours
  • Température de l'eau
  • Carte satellitaire
  • Carte météo
  • Widgets météo
  • user-avatar
    Se connecter

    Météo par heure à Shkodёr

    Ce jour, 15 Novembre, Jeudi

    Heure Température Précipitation Vent Pression Humidité
    00:00 +8°C° 0 mm 4 m/s 745 mmHg 68%
    01:00 +9°C° 0 mm 3 m/s 745 mmHg 70%
    02:00 +8°C° 0 mm 4 m/s 745 mmHg 70%
    03:00 +7°C° 0 mm 4 m/s 745 mmHg 70%
    04:00 +7°C° 0 mm 4 m/s 745 mmHg 70%
    05:00 +7°C° 0 mm 4 m/s 745 mmHg 70%
    06:00 +7°C° 0 mm 4 m/s 745 mmHg 71%
    07:00 +7°C° 0 mm 4 m/s 745 mmHg 70%
    08:00 +10°C° 0 mm 4 m/s 745 mmHg 62%
    09:00 +11°C° 0 mm 4 m/s 745 mmHg 55%
    10:00 +13°C° 0 mm 4 m/s 745 mmHg 47%
    11:00 +14°C° 0 mm 4 m/s 745 mmHg 44%
    12:00 +14°C° 0 mm 4 m/s 744 mmHg 41%
    13:00 +16°C° 0 mm 3 m/s 744 mmHg 38%
    14:00 +14°C° 0 mm 3 m/s 744 mmHg 42%
    15:00 +13°C° 0 mm 3 m/s 744 mmHg 45%
    16:00 +12°C° 0 mm 3 m/s 744 mmHg 49%
    17:00 +11°C° 0 mm 3 m/s 744 mmHg 53%
    18:00 +10°C° 0 mm 3 m/s 744 mmHg 57%
    19:00 +8°C° 0 mm 4 m/s 744 mmHg 61%
    20:00 +7°C° 0 mm 4 m/s 744 mmHg 64%
    21:00 +7°C° 0 mm 4 m/s 744 mmHg 67%
    22:00 +6°C° 0 mm 4 m/s 745 mmHg 69%
    23:00 +6°C° 0 mm 4 m/s 745 mmHg 71%

    Demain, 16 Novembre, Vendredi

    Heure Température Précipitation Vent Pression Humidité
    00:00 +6°C° 0 mm 4 m/s 745 mmHg 72%
    01:00 +5°C° 0 mm 4 m/s 745 mmHg 74%
    02:00 +5°C° 0 mm 4 m/s 744 mmHg 74%
    03:00 +5°C° 0 mm 4 m/s 744 mmHg 75%
    04:00 +5°C° 0 mm 4 m/s 744 mmHg 75%
    05:00 +5°C° 0 mm 4 m/s 744 mmHg 75%
    06:00 +5°C° 0 mm 4 m/s 744 mmHg 76%
    07:00 +5°C° 0 mm 4 m/s 744 mmHg 76%
    08:00 +6°C° 0 mm 5 m/s 744 mmHg 69%
    09:00 +8°C° 0 mm 5 m/s 744 mmHg 61%
    10:00 +9°C° 0 mm 5 m/s 744 mmHg 54%
    11:00 +11°C° 0 mm 4 m/s 744 mmHg 52%
    12:00 +11°C° 0 mm 4 m/s 744 mmHg 49%
    13:00 +12°C° 0 mm 4 m/s 743 mmHg 47%
    14:00 +11°C° 0 mm 4 m/s 744 mmHg 50%
    15:00 +10°C° 0 mm 4 m/s 744 mmHg 54%
    16:00 +8°C° 0 mm 4 m/s 744 mmHg 58%
    17:00 +8°C° 0 mm 4 m/s 744 mmHg 61%
    18:00 +7°C° 0 mm 5 m/s 744 mmHg 64%
    19:00 +7°C° 0 mm 5 m/s 745 mmHg 67%
    20:00 +6°C° 0 mm 5 m/s 745 mmHg 68%
    21:00 +6°C° 0 mm 5 m/s 745 mmHg 70%
    22:00 +6°C° 0 mm 5 m/s 745 mmHg 71%
    23:00 +6°C° 0 mm 5 m/s 745 mmHg 70%

    Après-demain, 17 Novembre, Samedi

    Heure Température Précipitation Vent Pression Humidité
    00:00 +6°C° 0 mm 5 m/s 745 mmHg 70%
    01:00 +6°C° 0 mm 5 m/s 744 mmHg 69%
    02:00 +6°C° 0.1 mm 5 m/s 744 mmHg 69%
    03:00 +6°C° 0.1 mm 5 m/s 744 mmHg 69%
    04:00 +6°C° 0.1 mm 5 m/s 744 mmHg 70%
    05:00 +5°C° 0.2 mm 5 m/s 744 mmHg 71%
    06:00 +5°C° 0.2 mm 5 m/s 744 mmHg 71%
    07:00 +5°C° 0.2 mm 5 m/s 744 mmHg 72%
    08:00 +6°C° 0.1 mm 5 m/s 744 mmHg 69%
    09:00 +7°C° 0.1 mm 5 m/s 744 mmHg 65%
    10:00 +8°C° 0.1 mm 5 m/s 744 mmHg 62%
    11:00 +8°C° 0 mm 5 m/s 743 mmHg 60%
    12:00 +9°C° 0 mm 5 m/s 743 mmHg 57%
    13:00 +10°C° 0 mm 4 m/s 743 mmHg 55%
    14:00 +10°C° 0.1 mm 4 m/s 742 mmHg 58%
    15:00 +8°C° 0.1 mm 4 m/s 742 mmHg 61%
    16:00 +8°C° 0.1 mm 4 m/s 742 mmHg 63%
    17:00 +7°C° 0 mm 4 m/s 742 mmHg 65%
    18:00 +6°C° 0 mm 4 m/s 743 mmHg 67%
    19:00 +5°C° 0 mm 4 m/s 743 mmHg 69%
    20:00 +5°C° 0 mm 4 m/s 743 mmHg 69%
    21:00 +5°C° 0 mm 4 m/s 743 mmHg 69%
    22:00 +4°C° 0 mm 4 m/s 743 mmHg 69%
    23:00 +4°C° 0 mm 4 m/s 743 mmHg 70%

    18 Novembre, Dimanche

    Heure Température Précipitation Vent Pression Humidité
    00:00 +4°C° 0 mm 4 m/s 743 mmHg 70%
    01:00 +4°C° 0 mm 4 m/s 743 mmHg 71%
    02:00 +4°C° 0 mm 4 m/s 743 mmHg 72%
    03:00 +4°C° 0 mm 4 m/s 742 mmHg 72%
    04:00 +3°C° 0 mm 4 m/s 742 mmHg 73%
    05:00 +4°C° 0 mm 4 m/s 742 mmHg 72%
    06:00 +4°C° 0 mm 4 m/s 742 mmHg 72%
    07:00 +4°C° 0 mm 4 m/s 742 mmHg 71%
    08:00 +5°C° 0 mm 4 m/s 742 mmHg 67%
    09:00 +7°C° 0 mm 4 m/s 741 mmHg 63%
    10:00 +8°C° 0 mm 4 m/s 741 mmHg 59%
    11:00 +10°C° 0 mm 3 m/s 740 mmHg 57%
    12:00 +11°C° 0 mm 3 m/s 740 mmHg 56%
    13:00 +11°C° 0 mm 3 m/s 739 mmHg 55%
    14:00 +11°C° 0.2 mm 3 m/s 739 mmHg 59%
    15:00 +10°C° 0.2 mm 2 m/s 739 mmHg 63%
    16:00 +9°C° 0.2 mm 2 m/s 738 mmHg 67%
    17:00 +9°C° 0.3 mm 2 m/s 738 mmHg 69%
    18:00 +8°C° 0.3 mm 2 m/s 738 mmHg 71%
    19:00 +8°C° 0.3 mm 2 m/s 737 mmHg 73%
    20:00 +8°C° 0.4 mm 2 m/s 737 mmHg 75%
    21:00 +7°C° 0.4 mm 2 m/s 737 mmHg 77%
    22:00 +7°C° 0.4 mm 2 m/s 737 mmHg 78%
    23:00 +7°C° 0.2 mm 2 m/s 737 mmHg 79%

    19 Novembre, Lundi

    Heure Température Précipitation Vent Pression Humidité
    00:00 +7°C° 0.2 mm 2 m/s 736 mmHg 80%
    01:00 +7°C° 0.2 mm 2 m/s 736 mmHg 81%
    02:00 +7°C° 0.2 mm 2 m/s 736 mmHg 81%
    03:00 +7°C° 0.2 mm 2 m/s 735 mmHg 82%
    04:00 +7°C° 0.2 mm 2 m/s 735 mmHg 82%
    05:00 +8°C° 0.2 mm 1 m/s 735 mmHg 82%
    06:00 +8°C° 0.2 mm 1 m/s 735 mmHg 82%
    07:00 +8°C° 0.2 mm 1 m/s 735 mmHg 82%
    08:00 +9°C° 0.2 mm 1 m/s 735 mmHg 80%
    09:00 +10°C° 0.2 mm 1 m/s 735 mmHg 77%
    10:00 +11°C° 0.2 mm 1 m/s 735 mmHg 74%
    11:00 +10°C° 0.1 mm 2 m/s 735 mmHg 74%
    12:00 +12°C° 0.1 mm 2 m/s 735 mmHg 73%
    13:00 +13°C° 0.1 mm 2 m/s 735 mmHg 72%
    14:00 +12°C° 0.1 mm 2 m/s 735 mmHg 75%
    15:00 +12°C° 0.1 mm 2 m/s 735 mmHg 78%
    16:00 +10°C° 0.1 mm 2 m/s 735 mmHg 81%
    17:00 +10°C° 0.3 mm 2 m/s 735 mmHg 82%
    18:00 +10°C° 0.3 mm 2 m/s 735 mmHg 83%
    19:00 +10°C° 0.3 mm 2 m/s 736 mmHg 85%
    20:00 +10°C° 1.1 mm 2 m/s 736 mmHg 86%
    21:00 +10°C° 1.1 mm 3 m/s 736 mmHg 87%
    22:00 +10°C° 1.1 mm 3 m/s 736 mmHg 87%
    23:00 +10°C° 2.1 mm 3 m/s 735 mmHg 88%

    20 Novembre, Mardi

    Heure Température Précipitation Vent Pression Humidité
    00:00 +10°C° 2.1 mm 3 m/s 735 mmHg 89%
    01:00 +10°C° 2.1 mm 3 m/s 734 mmHg 90%
    02:00 +10°C° 2.6 mm 4 m/s 734 mmHg 90%
    03:00 +10°C° 2.6 mm 4 m/s 733 mmHg 91%
    04:00 +11°C° 2.6 mm 4 m/s 733 mmHg 91%
    05:00 +11°C° 2.9 mm 4 m/s 733 mmHg 91%
    06:00 +10°C° 2.9 mm 5 m/s 732 mmHg 91%
    07:00 +10°C° 2.9 mm 5 m/s 732 mmHg 91%
    08:00 +12°C° 1.8 mm 5 m/s 732 mmHg 90%
    09:00 +12°C° 1.8 mm 5 m/s 732 mmHg 89%
    10:00 +13°C° 1.8 mm 6 m/s 732 mmHg 87%
    11:00 +13°C° 2.1 mm 6 m/s 731 mmHg 88%
    12:00 +13°C° 2.1 mm 6 m/s 731 mmHg 88%
    13:00 +12°C° 2.1 mm 7 m/s 730 mmHg 88%
    14:00 +12°C° 3.1 mm 7 m/s 730 mmHg 89%
    15:00 +12°C° 3.1 mm 7 m/s 730 mmHg 89%
    16:00 +12°C° 3.1 mm 7 m/s 730 mmHg 90%
    17:00 +13°C° 2.7 mm 6 m/s 730 mmHg 90%
    18:00 +13°C° 2.7 mm 6 m/s 730 mmHg 91%
    19:00 +13°C° 2.7 mm 6 m/s 730 mmHg 92%
    20:00 +13°C° 3 mm 6 m/s 730 mmHg 92%
    21:00 +13°C° 3 mm 5 m/s 731 mmHg 92%
    22:00 +13°C° 3 mm 5 m/s 731 mmHg 92%
    23:00 +13°C° 2.4 mm 5 m/s 731 mmHg 92%
    Voir plus